Regional Weather Roundup
Issued by NWS

Home | Current Version | Previous Version | Text Only | Print | Product List | Glossary Off
Versions: 1 2 3 4 5 6 7 8 9 10 11 12 13 14 15 16 17 18 19 20 21 22 23 24 25 26 27 28 29 30 31 32 33 34 35 36 37 38 39 40 41 42 43 44 45 46 47 48 49 50

000
ASUS45 KSLC 060610
RWRUT

UTAH REGIONAL WEATHER ROUNDUP
NATIONAL WEATHER SERVICE SALT LAKE CITY UT
1200 AM MDT MON JUL 06 2015

UTZ001>011-023>025-060700-

NORTHERN UTAH

CITY           SKY/WX    TMP DP  RH WIND       PRES   REMARKS
BRIGHAM CITY   CLEAR     67  61  81 CALM      30.05R
HILL AFB       CLEAR     71  55  56 E9        30.06S
LOGAN          CLEAR     61  58  90 N7        30.08R
OGDEN          CLEAR     70  61  73 VRB3      30.04S
PROVO AIRPORT  CLEAR     75  57  53 N9        30.05R
SALT LAKE CITY CLEAR     77  59  53 N5        30.02S
VERNAL         PTCLDY    68  54  60 N5        30.13R
WENDOVER       CLEAR     75  52  43 W3        30.06R
HEBER CITY     CLEAR     61  52  72 CALM      30.13R
WEST JORDAN    CLEAR     73  57  56 W8        30.06S

$$

UTZ012>022-026-027-060700-

SOUTHERN/CENTRAL UTAH

CITY           SKY/WX    TMP DP  RH WIND       PRES   REMARKS
BLANDING       CLOUDY    61  58  88 NW5       30.26R
BRYCE CANYON   CLOUDY    60  48  64 W3        30.31R
CEDAR CITY     MOCLDY    69  47  45 SE6       30.15S
DELTA          PTCLDY    76  52  42 NE8       30.06R
HANKSVILLE     CLEAR     70  59  68 CALM      30.07R
MILFORD        PTCLDY    73  47  39 S15       30.08R
MOAB/CYNLANDS  LGT RAIN  71  60  68 E17       30.05R
PRICE          CLEAR     73  53  49 E10       30.14R
ST GEORGE      CLEAR     82  48  30 E10       30.00R

$$

REGIONAL REPORTS     COLORADO/ARIZONA

CITY           SKY/WX    TMP DP  RH WIND       PRES   REMARKS
CRAIG, CO      PTCLDY    55  52  89 CALM      30.21S
GRAND JUNCTION CLOUDY    66  59  78 E10       30.11S
RIFLE          PTCLDY    62  58  86 SW3       30.17R
MONTROSE       MOCLDY    60  56  86 CALM      30.20S
CORTEZ         LGT RAIN  65  55  70 E7        30.20F
PAGE, AZ       MOCLDY    82  45  27 E5        30.06R
GRAND CANYON   CLOUDY    60  53  77 CALM      30.30R
KINGMAN        CLOUDY    78  57  48 E10       30.07S
FLAGSTAFF      CLOUDY    57  55  93 W3        30.35S

$$

REGIONAL REPORTS    NEVADA/IDAHO/WYOMING

CITY           SKY/WX    TMP DP  RH WIND       PRES   REMARKS
LAS VEGAS, NV  CLOUDY    87  52  29 NW14G22   29.92R
ELY            PTCLDY    69  30  23 NW10      30.20R
ELKO           CLEAR     65  44  46 SW6       30.14S
POCATELLO, ID  CLEAR     71  50  47 SW12      30.06R
BURLEY         PTCLDY    63  53  70 W8        30.04R
EVANSTON, WY   CLEAR     57  52  83 SE5       30.25R
ROCK SPRINGS   CLEAR     57  53  86 NE10      30.23R
KEMMERER       PTCLDY    55  50  82 N3        30.26R

$$


USA.gov is the U.S. government's official web portal to all federal, state and local government web resources and services.